Location: Forest
(37.3641°N, 79.2902°W)
Time: 06:31:35
(UTC+00:00)

Envisat - Pass Details

Date: 13 October 2024
Orbit: 761 x 763 km, 98.3° (Epoch: 08 November)

Event Time Altitude Azimuth Distance (km) Brightness Sun altitude
Rises 08:09:52 0° 15° (NNE) 3,231 6.7 -38.7°
Reaches altitude 10° 08:12:12 10° 19° (NNE) 2,301 5.8 -38.3°
Enters shadow 08:12:52 14° 20° (NNE) 2,037 5.5 -38.1°
